World > North America > United States > New York

Hourly Oscawana Lake, NY Regional Weather

Feedback E-mail the Weather

Latest News

Oscawana Lake, NY Weather Maps

°F °C°F °C
Oscawana Lake Weather Map
UTC Time: 5/27/2022, 06:25
Your Time:

Oscawana Lake, NY Regional Weather

Expires:202205270700;;636511
ASUS41 KALY 270610
RWRALY

NEW YORK STATE HOURLY WEATHER ROUNDUP
NATIONAL WEATHER SERVICE ALBANY NY
200 AM EDT FRI MAY 27 2022

NOTE: "FAIR" INDICATES FEW OR NO CLOUDS BELOW 12,000 FEET WITH NO
SIGNIFICANT WEATHER AND/OR NO OBSTRUCTIONS TO VISIBILITY.


NYZ032-033-038>043-046>054-057>066-NYZ062>081-082-084-270700-
EAST

  
CITY           SKY/WX    TMP DP  RH WIND       PRES   REMARKS
ALBANY         CLOUDY    66  57  72 SE12G18   29.99F                  
GLENS FALLS    CLOUDY    64  57  78 S9        29.97F                  
POUGHKEEPSIE   CLOUDY    66  57  72 S3        30.02F                  
NEWBURGH       CLOUDY    64  57  77 VRB5      30.06S                  
MONTGOMERY     LGT RAIN  62  58  86 SW6       30.03F                  
WHITE PLAINS   CLOUDY    63  60  90 S5        30.05F                  
ISLIP          LGT RAIN  64  64 100 S7        30.06F                  
NEW YORK CITY  CLOUDY    64  61  90 S6        30.05F FOG              
CENTRAL PARK   CLOUDY    65  62  90 CALM      30.08F                  
$$


SKY/WX - Weather  TMP - Temperature  DP - Dew Point  RH - Humidity
WIND - Wind Direction/Speed PRES - Barometric Pressure VSB - Visibility
WCI - Wind Chill Index E13G22 Wind - East Wind 13 mph/Gusts of 22 mph

Trending Headlines

Oscawana Lake Radar Loop



Oscawana Lake Quick Facts


National Two Day Weather Forecast


E-mail the Oscawana Lake Weather Forecast

Voice your opinion or tell us about page issues...